Location: Newark
(42.8481°N, 0.4872°E)
Time: 08:42:11
(UTC+00:00)

SR - Pass Details

Date: 06 November 2020
Orbit: 579 x 876 km, 66.7° (Epoch: 29 November)

Event Time Altitude Azimuth Distance (km) Brightness Sun altitude
Rises 10:28:01 0° 308° (NW) 3,176 ? 28.6°
Reaches altitude 10° 10:31:42 10° 280° (W) 2,318 ? 28.8°
Maximum altitude 10:33:57 13° 255° (WSW) 2,165 ? 28.9°
Drops below altitude 10° 10:36:16 10° 230° (SW) 2,390 ? 29.1°
Sets 10:40:13 0° 203° (SSW) 3,374 ? 29.3°
